Regional Weather Roundup
Issued by NWS

Home | Current Version | Previous Version | Text Only | Print | Product List | Glossary On
Versions: 1 2 3 4 5 6 7 8 9 10 11 12 13 14 15 16 17 18 19 20 21 22 23 24 25 26 27 28 29 30 31 32 33 34 35 36 37 38 39 40 41 42 43 44 45 46 47 48 49 50
000
ASUS43 KMPX 181801
RWRMN
WEATHER ROUNDUP FOR MINNESOTA
NATIONAL WEATHER SERVICE TWIN CITIES/CHANHASSEN MN
1200 PM CST WED JAN 18 2017


NOTE: "FAIR" INDICATES FEW OR NO CLOUDS BELOW 12,000 FEET WITH NO
SIGNIFICANT WEATHER AND/OR OBSTRUCTIONS TO VISIBILITY. N/A MEANS
CURRENT SKY AND/OR WEATHER CONDITIONS ARE NOT AVAILABLE.

MNZ060>063-068>070-181900-
   Twin Cities Metro

CITY           SKY/WX    TMP DP  RH WIND       PRES   REMARKS
TWIN CITIES    SUNNY     38  29  70 SW9       29.89S
6HR MIN TEMP:  28; 6HR MAX TEMP:  39;

ST PAUL        SUNNY     38  30  73 SW12      29.90F
CRYSTAL        SUNNY     37  27  67 S10       29.86F
BLAINE         SUNNY     39  30  70 S10       29.87F
LAKEVILLE      SUNNY     37  30  75 S10G16    29.88F
EDEN PRAIRIE   SUNNY     37  29  72 SW12      29.87F
6HR MIN TEMP:  28; 6HR MAX TEMP:  37;

SOUTH ST PAUL  SUNNY     39  30  71 S10       29.89F
LAKE ELMO      FAIR      36  32  87 S10       29.89F
$$
MNZ001>005-007-008-013>017-022>024-027-028-181900-
   Northwest Minnesota

CITY           SKY/WX    TMP DP  RH WIND       PRES   REMARKS
BEMIDJI        SUNNY     38  25  60 SW6       29.73F
HALLOCK        CLOUDY    25  21  86 SE10      29.68S WCI  15
ROSEAU         CLOUDY    28  21  74 S5        29.70S WCI  23
WARROAD        CLOUDY    32  25  74 S3        29.70S
THIEF RVR FALL CLOUDY    30  22  72 S10       29.72F WCI  21
CROOKSTON      CLOUDY    27  19  74 S13       29.73F WCI  16
FOSSTON        CLOUDY    30  21  69 S9        29.74F WCI  22
DETROIT LAKES  CLOUDY    34  25  69 S5        29.76F WCI  30
MOORHEAD       CLOUDY    28  21  74 S7        29.77F WCI  21
PARK RAPIDS    SUNNY     33  21  61 CALM      29.75F
MAHNOMEN       FAIR      29  22  74 S14       29.74F WCI  19
$$
MNZ006-009>011-018-025>026-181900-
   North Central Minnesota

CITY           SKY/WX    TMP DP  RH WIND       PRES   REMARKS
BAUDETTE       CLOUDY    28  21  75 E7        29.71S WCI  21
FLAG ISLAND    CLOUDY    23  18  80 SE6       29.70S WCI  16
INTL FALLS     CLOUDY    34  22  61 NW3       29.74R
6HR MIN TEMP:  20; 6HR MAX TEMP:  34;

WASKISH        CLOUDY    34  25  69 W7        29.74R WCI  28
BIG FORK       SUNNY     36  25  64 SW6       29.74F
LONGVILLE      SUNNY     37  23  56 SW7       29.76F
GRAND RAPIDS   SUNNY     35  23  61 S3        29.77F
CRANE LAKE     SUNNY     34  21  60 SW3       29.77S
ORR            CLOUDY    34  19  55 CALM      29.72F
COOK           CLOUDY    36  25  64 SW7       29.75F
WALKER         FAIR      37  24  60 W6        29.75F
$$
MNZ012-019>021-037-181900-
   Northeast Minnesota

CITY           SKY/WX    TMP DP  RH WIND       PRES   REMARKS
DULUTH         SUNNY     35  26  69 W12       29.76F WCI  27
6HR MIN TEMP:  26; 6HR MAX TEMP:  35;

ELY            SUNNY     34  23  64 SW6       29.75R WCI  29
HIBBING        SUNNY     33  23  66 VRB3      29.76F
EVELETH        SUNNY     33  23  68 SW7       29.77F WCI  26
DULUTH HARBOR  SUNNY     36  28  75 CALM      29.81F
TWO HARBORS    SUNNY     41  28  60 W8        29.75F
SILVER BAY     SUNNY     41  28  60 SW8       29.72F
GRAND MARAIS     N/A     36  31  82 SW17      29.75F
G MARAIS ARPRT SUNNY     37  23  56 W7        29.71F
$$
MNZ029>031-032-039>041-046>048-054>057-064-181900-
   West Central Minnesota

CITY           SKY/WX    TMP DP  RH WIND       PRES   REMARKS
FERGUS FALLS   SUNNY     30  23  74 S9        29.82F WCI  22
WHEATON        CLOUDY    41  30  65 S3        29.79F
MORRIS         SUNNY     34  27  75 SE8       29.78F WCI  27
ALEXANDRIA     SUNNY     33  25  72 SW13      29.79F WCI  24
ELBOW LAKE     FAIR      30  25  80 SE8       29.79F HAZE    WCI  23
WADENA         SUNNY     34  23  64 CALM      29.77F
GLENWOOD       SUNNY     34  27  75 SW7       29.81S WCI  28
APPLETON       SUNNY     37  25  60 S7        29.80F
ORTONVILLE     MOSUNNY   36  25  64 CALM      29.78F
MADISON        SUNNY     37  30  75 S7        29.79F
WILLMAR        FAIR      34  28  80 CALM      29.83F
$$
MNZ033>034-036-042>043-049>051-058-059-181900-
   Central Minnesota

CITY           SKY/WX    TMP DP  RH WIND       PRES   REMARKS
ST CLOUD       SUNNY     33  28  81 S8        29.82F WCI  26
6HR MIN TEMP:  20; 6HR MAX TEMP:  33;

SAUK CENTRE    FAIR      32  27  79 S6        29.81S WCI  27
PAYNESVILLE    SUNNY     34  27  74 S7        29.82F WCI  28
AITKIN         SUNNY     39  21  48 SW5       29.77F
PINE RIVER     SUNNY     37  25  60 CALM      29.81F
BRAINERD       SUNNY     33  25  72 SW8       29.79F WCI  26
STAPLES        SUNNY     36  25  64 CALM      29.78F
LONG PRAIRIE   FAIR      32  25  74 S8        29.80F WCI  25
LITTLE FALLS   SUNNY     32  25  74 SW6       29.83R WCI  26
LITCHFIELD     SUNNY     36  28  75 S5        29.84F
BUFFALO        SUNNY     36  28  72 S6        29.86F
MAPLE LAKE     SUNNY     37  30  75 S8        29.85F
HUTCHINSON     CLOUDY    35  31  86 S9        29.87S WCI  28
$$
MNZ037-044-045-052-053-181900-
   East Central Minnesota

CITY           SKY/WX    TMP DP  RH WIND       PRES   REMARKS
PRINCETON      SUNNY     37  28  70 S8        29.84F
MORA           SUNNY     34  27  75 SW9       29.85F WCI  26
CAMBRIDGE      SUNNY     37  27  65 S8        29.83F
RUSH CITY      SUNNY     37  27  65 S7        29.85F
MOOSE LAKE     SUNNY     34  27  75 SW10      29.79S WCI  26
HINCKLEY       FAIR      34  28  80 S10       29.83F WCI  26
CLOQUET        SUNNY     34  23  64 SW7       29.78S WCI  28
MCGREGOR       SUNNY     34  27  75 SW6       29.79S WCI  29
$$
MNZ071>073-080-081-089-090-097-098-181900-
   Southwest Minnesota

CITY           SKY/WX    TMP DP  RH WIND       PRES   REMARKS
MONTEVIDEO     SUNNY     41  32  70 W7        29.82F
GRANITE FALLS  SUNNY     35  30  81 S10       29.84F WCI  28
CANBY            N/A     40  26  57 CALM      29.82F
MARSHALL       SUNNY     37  29  72 SW15      29.83F
REDWOOD FALLS  SUNNY     35  29  78 S14       29.85F WCI  26
OLIVIA         SUNNY     34  30  86 S8        29.84S WCI  27
PIPESTONE      CLOUDY    36  30  80 SW9       29.84F
WINDOM           N/A     37  34  87 SW14      29.87F
WORTHINGTON    SUNNY     36  31  82 S16       29.87F
JACKSON        SUNNY     34  30  86 SW13      29.90S WCI  25
TRACY          SUNNY     37  32  81 SW17      29.84F
SLAYTON        SUNNY     34  31  89 SW16      29.85F WCI  24
$$
MNZ065>067-074>077-082>085-091>093-181900-
   South Central Minnesota

CITY           SKY/WX    TMP DP  RH WIND       PRES   REMARKS
MANKATO        SUNNY     36  31  82 S13       29.90F
NEW ULM        SUNNY     34  30  86 S9        29.87F WCI  26
ST JAMES       SUNNY     36  34  93 S13       29.89F
FAIRMONT       SUNNY     36  31  82 S14       29.91F
GLENCOE        SUNNY     36  32  86 S10       29.86F
FARIBAULT      SUNNY     36  30  80 S9        29.90F
OWATONNA       SUNNY     36  30  80 S13       29.91F HAZE
WASECA         SUNNY     34  32  93 S15       29.92F WCI  24
ALBERT LEA     CLOUDY    36  34  93 S7G17     29.93F FOG
$$
MNZ078>079-086>088-094>096-181900-
   Southeast Minnesota

CITY           SKY/WX    TMP DP  RH WIND       PRES   REMARKS
ROCHESTER      CLOUDY    30  30 100 S18G26    29.93F FOG     WCI  18
6HR MIN TEMP:  25; 6HR MAX TEMP:  30;

RED WING       SUNNY     37  28  70 SW8       29.91F
STANTON        SUNNY     36  30  80 S10       29.89F
DODGE CENTER   CLOUDY    30  30 100 CALM      29.92F FOG
WINONA         CLOUDY    36  30  80 SW6       29.97F
AUSTIN         CLOUDY    30  30 100 S14       29.93F FOG     WCI  20
PRESTON        FOG       29  29  96 S17       29.95F VSB 1   WCI  18
$$
ABBREVIATIONS USED IN REMARKS
   TC - TEMPERATURES IN CELSIUS
  WCI - WIND CHILL INDEX
   HX - HEAT INDEX
  VSB - VISIBILITY
$$




USA.gov is the U.S. government's official web portal to all federal, state and local government web resources and services.